Regional Weather Roundup
Issued by NWS

Home | Current Version | Previous Version | Text Only | Print | Product List | Glossary On
Versions: 1 2 3 4 5 6 7 8 9 10 11 12 13 14 15 16 17 18 19 20 21 22 23 24 25 26 27 28 29 30 31 32 33 34 35 36 37 38 39 40 41 42 43 44 45 46 47 48 49 50
000
ASCA42 TJSJ 070010
RWRPR
PUERTO RICO/U.S. VIRGIN ISLANDS HOURLY WEATHER ROUNDUP
NATIONAL WEATHER SERVICE SAN JUAN PR
800 PM AST SAT FEB 06 2016

PRZ001-004-070100-
PUERTO RICO

CITY           SKY/WX    TMP DP  RH WIND       PRES   REMARKS
SAN JUAN LMM   CLOUDY    79  66  65 SE6       30.06R
AGUADILLA      CLEAR     75  66  73 E6        30.07R
CEIBA          LGT RAIN  72  72 100 N3        30.09R FOG
$$

PRZ006-007-070100-
U.S. VIRGIN ISLANDS

CITY           SKY/WX    TMP DP  RH WIND       PRES   REMARKS
CHARLOTTE AMA  MOCLDY    77  72  83 W3        30.06R
CHRISTIANSTED  PTCLDY    81  72  74 E8        30.06R
$$

HOURLY WEATHER ROUNDUP FOR THE NEWS MEDIA

CITY           SKY/WX    TMP DP  RH WIND       PRES   REMARKS
ORLANDO        LGT RAIN  61  58  90 N3        30.04S
NEW YORK       MOCLDY    36  23  59 SW9       30.31S WCI  29
NEWARK         MOCLDY    37  23  56 S9        30.30R WCI  30
CHICAGO        PTCLDY    37  28  70 SW7       30.14S WCI  32
HARTFORD       PTCLDY    33  27  78 SW7       30.29S WCI  27
BOSTON         PTCLDY    32  25  75 SW15      30.27S WCI  22
DALLAS         PTCLDY    50  33  52 VRB3      30.35S
PHILADELPHIA   PTCLDY    39  22  50 S9        30.31S WCI  33
LOS ANGELES    SUNNY     70  32  24 W8        30.14F
WASHINGTON DC  MOCLDY    36  18  48 SE5       30.29S WCI  32


USA.gov is the U.S. government's official web portal to all federal, state and local government web resources and services.